sat.trackr.live / text

‹ back to catalog

POEM

NORAD 52939 · 2022-072E

PAYLOAD ACTIVE UNKNOWN

§ Identity

Operator
Country
IND
Launch date
2022-06-30
Launch site
SRILR
Launch vehicle
Mass (kg)
RCS (m²)

External: N2YO · Heavens-Above · Gunter

§ Orbital elements

Epoch: 2026-05-24T20:27:53.021664Z

Period
94.50 min
Inclination
9.9517°
Eccentricity
0.0024039
Mean motion
15.23765423 rev/d
Perigee alt
478.0 km
Apogee alt
511.0 km
Semi-major
6,872.6 km
B*
2.4188e-4
RAAN
248.0614°
Arg perigee
212.7860°
Mean anomaly
147.0862°
Rev number
21,594

§ Raw data

POEM1 52939U 22072E   26144.85269701  .00007009  00000+0  24188-3 0  99972 52939   9.9517 248.0614 0024039 212.7860 147.0862 15.23765423215947

JSON: /api/v1/satellites/52939 · /tle

For live sub-satellite position, see the globe view (requires WebGL).

§ Visibility from observer

Set your observer location to see the next 7 days of passes ≥ 10°. The values pass through the URL so the page stays shareable.

No JS? Fill the form by hand. The geolocation button needs JavaScript.